User: anonymous   Login
Location: Unspecified
(43.4680°N, 87.1740°E)
Time: 12:56:14
(UTC+00:00)
Language:

Landsat 7 - Orbit

View from above orbital plane
View from above orbital plane
View from above satellite
View from above satellite

Ground track
Ground track

The orbit data is extracted from the following two-line orbital elements,

1 25682U 99020A   21169.47216761  .00000043  00000-0  19246-4 0  9999
2 25682  98.0304 226.3014 0001608 100.0882 260.0501 14.57199275179541
Epoch (UTC): 18 June 2021 11:19:55
Eccentricity: 0.0001608
inclination: 98.0304°
perigee height: 701 km
apogee height: 703 km
right ascension of ascending node: 226.3014°
argument of perigee: 100.0882°
revolutions per day: 14.57199275
mean anomaly at epoch: 260.0501°
orbit number at epoch: 17954

The dashed part of the orbit path shows where the satellite is in the earth's shadow,  

DLR